This is the latest recevied weather packets stored in our database for station/object K6POO-1. If no packets are shown the sender has not sent any weather packets the latest 10 day(s).
| Time | Temp. | Humidity | Pressure | Rain* | Wind** | Luminosity | Snow |
|---|---|---|---|---|---|---|---|
| 1788014701 | 14.44° C | 90% | 1015.5 hPa | 0 mm | - | 90 W/m² | - |
| 1788014396 | 14.44° C | 91% | 1015.5 hPa | 0 mm | - | 82 W/m² | - |
| 1788014092 | 14.44° C | 91% | 1015.7 hPa | 0 mm | - | 40 W/m² | - |
| 1788013790 | 13.89° C | 91% | 1015.5 hPa | 0 mm | - | 36 W/m² | - |
| 1788013485 | 13.89° C | 91% | 1015.6 hPa | 0 mm | - | 33 W/m² | - |
| 1788013185 | 13.89° C | 91% | 1015.6 hPa | 0 mm | - | 34 W/m² | - |
| 1788012884 | 13.89° C | 91% | 1015.3 hPa | 0 mm | - | 29 W/m² | - |
| 1788012579 | 13.89° C | 91% | 1015.2 hPa | 0 mm | - | 24 W/m² | - |
| 1788012274 | 13.89° C | 91% | 1015.2 hPa | 0 mm | - | 20 W/m² | - |
| 1788011973 | 13.89° C | 92% | 1015.1 hPa | 0 mm | - | 17 W/m² | - |
| 1788011672 | 13.89° C | 92% | 1015.1 hPa | 0 mm | - | 13 W/m² | - |
| 1788011368 | 13.89° C | 92% | 1015 hPa | 0 mm | - | 10 W/m² | - |
| 1788011067 | 13.89° C | 92% | 1015.1 hPa | 0 mm | - | 7 W/m² | - |
| 1788010763 | 13.89° C | 93% | 1015.1 hPa | 0 mm | - | 4 W/m² | - |
| 1788010461 | 13.89° C | 93% | 1014.9 hPa | 0 mm | - | 3 W/m² | - |
| 1788010156 | 13.89° C | 93% | 1014.8 hPa | 0 mm | - | 1 W/m² | - |
| 1788009850 | 13.89° C | 93% | 1014.9 hPa | 0 mm | - | 0 W/m² | - |
| 1788009548 | 13.89° C | 93% | 1014.8 hPa | 0 mm | - | 0 W/m² | - |
| 1788009243 | 13.89° C | 93% | 1014.9 hPa | 0 mm | - | 0 W/m² | - |
| 1788008938 | 13.89° C | 93% | 1015 hPa | 0 mm | - | 0 W/m² | - |
| 1788008634 | 13.89° C | 93% | 1014.7 hPa | 0 mm | - | 0 W/m² | - |
| 1788008331 | 13.89° C | 93% | 1014.9 hPa | 0 mm | - | 0 W/m² | - |
| 1788008029 | 13.89° C | 93% | 1014.9 hPa | 0 mm | - | 0 W/m² | - |
| 1788007728 | 13.89° C | 93% | 1014.9 hPa | 0 mm | - | 0 W/m² | - |
| 1788007424 | 13.89° C | 93% | 1015 hPa | 0 mm | - | 0 W/m² | - |
* Rain latest hour (hover to see other rain measurements)
** Current wind speed in m/s (hover to see current wind gust speed)